Time,TemperatureF,DewpointF,PressureIn,WindDirection,WindDirectionDegrees,WindSpeedMPH,WindSpeedGustMPH,Humidity,HourlyPrecipIn,Conditions,Clouds,dailyrainin,SoftwareType,DateUTC
2013-01-01 00:00:00,34.2,29.5,30.26,WNW,283,0.0,0.0,83,0.00,,,-99.99,Weather View 32 v60,2013-01-01 08:00:00,
2013-01-01 00:10:00,34.0,29.4,30.26,WNW,283,0.0,0.0,83,0.00,,,-99.99,Weather View 32 v60,2013-01-01 08:10:00,
2013-01-01 00:20:00,33.8,29.2,30.26,WNW,283,0.0,0.0,83,0.00,,,-99.99,Weather View 32 v60,2013-01-01 08:20:00,
2013-01-01 00:30:00,33.6,29.3,30.26,WNW,283,0.0,0.0,84,0.00,,,-99.99,Weather View 32 v60,2013-01-01 08:30:00,
2013-01-01 00:40:00,33.6,29.3,30.26,WNW,283,0.0,0.0,84,0.00,,,-99.99,Weather View 32 v60,2013-01-01 08:40:00,
2013-01-01 00:50:00,33.4,29.4,30.23,WNW,283,0.0,0.0,85,0.00,,,-99.99,Weather View 32 v60,2013-01-01 08:50:00,
2013-01-01 01:00:00,33.1,29.1,30.23,WNW,284,0.0,0.0,85,0.00,,,-99.99,Weather View 32 v60,2013-01-01 09:00:00,
2013-01-01 01:10:00,33.3,29.5,30.23,NNW,339,0.0,0.0,86,0.00,,,-99.99,Weather View 32 v60,2013-01-01 09:10:00,
2013-01-01 01:20:00,33.3,29.8,30.26,NW,307,0.0,0.0,87,0.00,,,-99.99,Weather View 32 v60,2013-01-01 09:20:00,
2013-01-01 01:30:00,33.4,30.0,30.26,NW,307,0.0,0.0,87,0.00,,,-99.99,Weather View 32 v60,2013-01-01 09:30:00,
2013-01-01 01:40:00,33.4,30.0,30.26,NW,307,0.0,0.0,87,0.00,,,-99.99,Weather View 32 v60,2013-01-01 09:40:00,
2013-01-01 01:50:00,33.4,30.0,30.26,NW,307,0.0,0.0,87,0.00,,,-99.99,Weather View 32 v60,2013-01-01 09:50:00,
2013-01-01 02:00:00,33.3,29.8,30.26,NW,307,0.0,0.0,87,0.00,,,-99.99,Weather View 32 v60,2013-01-01 10:00:00,
2013-01-01 02:10:00,33.1,29.6,30.26,NW,307,0.0,0.0,87,0.00,,,-99.99,Weather View 32 v60,2013-01-01 10:10:00,
2013-01-01 02:20:00,33.1,29.6,30.26,NW,307,0.0,0.0,87,0.00,,,-99.99,Weather View 32 v60,2013-01-01 10:20:00,
2013-01-01 02:30:00,32.7,29.6,30.26,NW,307,0.0,0.0,88,0.00,,,-99.99,Weather View 32 v60,2013-01-01 10:30:00,
2013-01-01 02:40:00,32.7,29.8,30.26,NW,307,0.0,0.0,89,0.00,,,-99.99,Weather View 32 v60,2013-01-01 10:40:00,
2013-01-01 02:50:00,32.5,29.7,30.26,NW,307,0.0,0.0,89,0.00,,,-99.99,Weather View 32 v60,2013-01-01 10:50:00,
2013-01-01 03:00:00,32.2,29.3,30.26,NW,307,0.0,0.0,89,0.00,,,-99.99,Weather View 32 v60,2013-01-01 11:00:00,
2013-01-01 03:10:00,32.0,29.1,30.26,NW,307,0.0,0.0,89,0.00,,,-99.99,Weather View 32 v60,2013-01-01 11:10:00,
2013-01-01 03:20:00,32.0,29.1,30.26,NW,307,0.0,0.0,89,0.00,,,-99.99,Weather View 32 v60,2013-01-01 11:20:00,
2013-01-01 03:30:00,32.5,29.9,30.26,NW,307,0.0,0.0,90,0.00,,,-99.99,Weather View 32 v60,2013-01-01 11:30:00,
2013-01-01 03:40:00,33.3,30.6,30.26,NW,307,0.0,0.0,90,0.00,,,-99.99,Weather View 32 v60,2013-01-01 11:40:00,
2013-01-01 03:50:00,33.8,31.2,30.26,NW,307,0.0,0.0,90,0.00,,,-99.99,Weather View 32 v60,2013-01-01 11:50:00,
2013-01-01 04:00:00,34.2,31.5,30.26,NW,307,0.0,0.0,90,0.00,,,-99.99,Weather View 32 v60,2013-01-01 12:00:00,
2013-01-01 04:10:00,34.5,32.2,30.26,NW,307,0.0,0.0,91,0.00,,,-99.99,Weather View 32 v60,2013-01-01 12:10:00,
2013-01-01 04:20:00,34.9,32.2,30.26,NW,307,0.0,0.0,90,0.00,,,-99.99,Weather View 32 v60,2013-01-01 12:20:00,
2013-01-01 04:30:00,35.1,32.7,30.29,NW,307,0.0,0.0,91,0.00,,,-99.99,Weather View 32 v60,2013-01-01 12:30:00,
2013-01-01 04:39:00,35.2,32.6,30.29,NW,307,0.0,0.0,90,0.00,,,-99.99,Weather View 32 v60,2013-01-01 12:39:00,
2013-01-01 04:50:00,35.4,32.8,30.29,NW,307,0.0,0.0,90,0.00,,,-99.99,Weather View 32 v60,2013-01-01 12:50:00,
2013-01-01 05:00:00,35.4,32.8,30.29,NW,307,0.0,0.0,90,0.00,,,-99.99,Weather View 32 v60,2013-01-01 13:00:00,
2013-01-01 05:10:00,35.6,33.0,30.29,NW,307,0.0,0.0,90,0.00,,,-99.99,Weather View 32 v60,2013-01-01 13:10:00,
2013-01-01 05:20:00,35.6,33.0,30.29,NW,307,0.0,0.0,90,0.00,,,-99.99,Weather View 32 v60,2013-01-01 13:20:00,
2013-01-01 05:30:00,35.8,33.1,30.29,NW,307,0.0,0.0,90,0.00,,,-99.99,Weather View 32 v60,2013-01-01 13:30:00,
2013-01-01 05:40:00,35.6,32.7,30.29,NW,307,0.0,0.0,89,0.00,,,-99.99,Weather View 32 v60,2013-01-01 13:40:00,
2013-01-01 05:50:00,35.2,32.3,30.26,NW,307,0.0,0.0,89,0.00,,,-99.99,Weather View 32 v60,2013-01-01 13:50:00,
2013-01-01 05:59:00,34.9,32.0,30.26,NW,307,0.0,0.0,89,0.00,,,-99.99,Weather View 32 v60,2013-01-01 13:59:00,
2013-01-01 06:10:00,34.5,31.6,30.26,NW,307,0.0,0.0,89,0.00,,,-99.99,Weather View 32 v60,2013-01-01 14:10:00,
2013-01-01 06:20:00,34.5,31.6,30.26,NW,307,0.0,0.0,89,0.00,,,-99.99,Weather View 32 v60,2013-01-01 14:20:00,
2013-01-01 06:29:00,34.3,31.4,30.26,NW,307,0.0,0.0,89,0.00,,,-99.99,Weather View 32 v60,2013-01-01 14:29:00,
2013-01-01 06:39:00,34.2,31.3,30.26,NW,307,0.0,0.0,89,0.00,,,-99.99,Weather View 32 v60,2013-01-01 14:39:00,
2013-01-01 06:49:00,33.8,30.9,30.29,NW,307,0.0,0.0,89,0.00,,,-99.99,Weather View 32 v60,2013-01-01 14:49:00,
2013-01-01 06:59:00,33.3,30.4,30.26,NW,307,0.0,0.0,89,0.00,,,-99.99,Weather View 32 v60,2013-01-01 14:59:00,
2013-01-01 07:09:00,33.1,30.2,30.26,NW,307,0.0,0.0,89,0.00,,,-99.99,Weather View 32 v60,2013-01-01 15:09:00,
2013-01-01 07:20:00,32.9,30.0,30.26,NW,307,0.0,0.0,89,0.00,,,-99.99,Weather View 32 v60,2013-01-01 15:20:00,
2013-01-01 07:29:00,32.7,29.8,30.26,NW,307,0.0,0.0,89,0.00,,,-99.99,Weather View 32 v60,2013-01-01 15:29:00,
2013-01-01 07:39:00,32.5,29.7,30.26,NW,307,0.0,0.0,89,0.00,,,-99.99,Weather View 32 v60,2013-01-01 15:39:00,
2013-01-01 07:49:00,32.5,29.9,30.26,NW,307,0.0,0.0,90,0.00,,,-99.99,Weather View 32 v60,2013-01-01 15:49:00,
2013-01-01 07:59:00,32.5,29.9,30.26,NW,307,0.0,0.0,90,0.00,,,-99.99,Weather View 32 v60,2013-01-01 15:59:00,
2013-01-01 08:09:00,32.9,30.3,30.26,NW,307,0.0,0.0,90,0.00,,,-99.99,Weather View 32 v60,2013-01-01 16:09:00,
2013-01-01 08:19:00,33.4,31.1,30.29,NW,307,0.0,0.0,91,0.00,,,-99.99,Weather View 32 v60,2013-01-01 16:19:00,
2013-01-01 08:25:00,33.4,31.1,30.29,NW,307,0.0,0.0,91,0.00,,,-99.99,Weather View 32 v60,2013-01-01 16:25:00,
2013-01-01 08:39:00,35.2,33.1,30.29,NW,307,0.0,0.0,92,0.00,,,-99.99,Weather View 32 v60,2013-01-01 16:39:00,
2013-01-01 08:49:00,36.5,34.4,30.29,NW,307,0.0,0.0,92,0.00,,,-99.99,Weather View 32 v60,2013-01-01 16:49:00,
2013-01-01 08:59:00,38.3,36.2,30.29,NW,307,0.0,0.0,92,0.00,,,-99.99,Weather View 32 v60,2013-01-01 16:59:00,
2013-01-01 09:09:00,39.7,36.5,30.29,NW,308,0.0,0.0,88,0.00,,,-99.99,Weather View 32 v60,2013-01-01 17:09:00,
2013-01-01 09:19:00,39.9,36.1,30.29,NW,307,0.0,0.0,86,0.00,,,-99.99,Weather View 32 v60,2013-01-01 17:19:00,
2013-01-01 09:25:00,39.9,36.1,30.29,NW,307,0.0,0.0,86,0.00,,,-99.99,Weather View 32 v60,2013-01-01 17:25:00,
2013-01-01 09:39:00,41.4,35.3,30.29,SSE,164,0.0,0.0,79,0.00,,,-99.99,Weather View 32 v60,2013-01-01 17:39:00,
2013-01-01 09:49:00,42.1,35.1,30.29,SSE,161,0.0,0.0,76,0.00,,,-99.99,Weather View 32 v60,2013-01-01 17:49:00,
2013-01-01 09:59:00,42.6,34.6,30.29,SSE,147,0.0,0.0,73,0.00,,,-99.99,Weather View 32 v60,2013-01-01 17:59:00,
2013-01-01 10:09:00,43.5,34.4,30.29,SE,131,0.0,0.0,70,0.00,,,-99.99,Weather View 32 v60,2013-01-01 18:09:00,
2013-01-01 10:19:00,44.1,34.5,30.29,SE,135,0.0,0.0,69,0.00,,,-99.99,Weather View 32 v60,2013-01-01 18:19:00,
2013-01-01 10:26:00,44.1,34.5,30.29,SE,135,0.0,0.0,69,0.00,,,-99.99,Weather View 32 v60,2013-01-01 18:26:00,
2013-01-01 10:39:00,45.5,33.2,30.29,ENE,71,0.0,0.0,62,0.00,,,-99.99,Weather View 32 v60,2013-01-01 18:39:00,
2013-01-01 10:49:00,46.6,33.8,30.29,SE,145,0.0,0.0,61,0.00,,,-99.99,Weather View 32 v60,2013-01-01 18:49:00,
2013-01-01 10:59:00,47.3,32.8,30.29,East,82,0.0,0.0,57,0.00,,,-99.99,Weather View 32 v60,2013-01-01 18:59:00,
2013-01-01 11:09:00,48.2,32.8,30.29,East,95,0.0,0.0,55,0.00,,,-99.99,Weather View 32 v60,2013-01-01 19:09:00,
2013-01-01 11:19:00,48.6,32.2,30.29,NNE,33,0.0,0.0,53,0.00,,,-99.99,Weather View 32 v60,2013-01-01 19:19:00,
2013-01-01 11:26:00,48.6,32.2,30.29,NNE,33,0.0,0.0,53,0.00,,,-99.99,Weather View 32 v60,2013-01-01 19:26:00,
2013-01-01 11:39:00,49.8,32.4,30.29,ENE,77,0.0,0.0,51,0.00,,,-99.99,Weather View 32 v60,2013-01-01 19:39:00,
2013-01-01 11:49:00,50.5,32.1,30.26,East,90,0.0,0.0,49,0.00,,,-99.99,Weather View 32 v60,2013-01-01 19:49:00,
2013-01-01 11:59:00,51.6,32.5,30.26,North,11,0.0,0.0,48,0.00,,,-99.99,Weather View 32 v60,2013-01-01 19:59:00,
2013-01-01 12:09:00,0.0,0.0,30.26,ENE,58,0.0,0.0,0,0.00,,,-99.99,Weather View 32 v60,2013-01-01 20:09:00,
2013-01-01 12:19:00,51.6,31.5,30.26,NNE,29,0.0,0.0,46,0.00,,,-99.99,Weather View 32 v60,2013-01-01 20:19:00,
2013-01-01 12:27:00,51.6,31.5,30.26,NNE,29,0.0,0.0,46,0.00,,,-99.99,Weather View 32 v60,2013-01-01 20:27:00,
2013-01-01 12:39:00,51.8,30.5,30.26,North,2,0.0,0.0,44,0.00,,,-99.99,Weather View 32 v60,2013-01-01 20:39:00,
2013-01-01 12:49:00,52.2,30.9,30.26,ENE,57,0.0,0.0,44,0.00,,,-99.99,Weather View 32 v60,2013-01-01 20:49:00,
2013-01-01 12:59:00,51.6,29.8,30.26,NNE,29,0.0,0.0,43,0.00,,,-99.99,Weather View 32 v60,2013-01-01 20:59:00,
2013-01-01 13:09:00,51.8,29.4,30.26,NE,35,0.0,3.0,42,0.00,,,-99.99,Weather View 32 v60,2013-01-01 21:09:00,
2013-01-01 13:19:00,52.2,30.3,30.26,ENE,77,0.0,3.0,43,0.00,,,-99.99,Weather View 32 v60,2013-01-01 21:19:00,
2013-01-01 13:27:00,52.2,30.3,30.26,ENE,77,0.0,3.0,43,0.00,,,-99.99,Weather View 32 v60,2013-01-01 21:27:00,
2013-01-01 13:39:00,52.2,29.1,30.26,NE,34,0.0,4.0,41,0.00,,,-99.99,Weather View 32 v60,2013-01-01 21:39:00,
2013-01-01 13:49:00,52.2,29.1,30.26,ENE,58,0.0,4.0,41,0.00,,,-99.99,Weather View 32 v60,2013-01-01 21:49:00,
2013-01-01 13:59:00,52.7,29.0,30.26,NE,42,0.0,4.0,40,0.00,,,-99.99,Weather View 32 v60,2013-01-01 21:59:00,
2013-01-01 14:09:00,52.5,28.2,30.26,NE,35,0.0,4.0,39,0.00,,,-99.99,Weather View 32 v60,2013-01-01 22:09:00,
2013-01-01 14:19:00,52.3,28.1,30.26,ESE,104,0.0,4.0,39,0.00,,,-99.99,Weather View 32 v60,2013-01-01 22:19:00,
2013-01-01 14:28:00,52.3,28.1,30.26,ESE,104,0.0,4.0,39,0.00,,,-99.99,Weather View 32 v60,2013-01-01 22:28:00,
2013-01-01 14:39:00,52.5,28.2,30.23,NNE,21,0.0,4.0,39,0.00,,,-99.99,Weather View 32 v60,2013-01-01 22:39:00,
2013-01-01 14:49:00,52.9,28.6,30.23,East,95,0.0,4.0,39,0.00,,,-99.99,Weather View 32 v60,2013-01-01 22:49:00,
2013-01-01 14:59:00,52.5,28.2,30.23,NE,47,0.0,4.0,39,0.00,,,-99.99,Weather View 32 v60,2013-01-01 22:59:00,
2013-01-01 15:09:00,52.0,27.7,30.23,NNE,22,0.0,0.0,39,0.00,,,-99.99,Weather View 32 v60,2013-01-01 23:09:00,
2013-01-01 15:19:00,52.5,28.8,30.26,East,83,0.0,0.0,40,0.00,,,-99.99,Weather View 32 v60,2013-01-01 23:19:00,
2013-01-01 15:28:00,52.5,28.8,30.26,East,83,0.0,0.0,40,0.00,,,-99.99,Weather View 32 v60,2013-01-01 23:28:00,
2013-01-01 15:39:00,52.2,28.5,30.23,East,86,0.0,0.0,40,0.00,,,-99.99,Weather View 32 v60,2013-01-01 23:39:00,
2013-01-01 15:49:00,51.8,28.8,30.26,ENE,70,0.0,0.0,41,0.00,,,-99.99,Weather View 32 v60,2013-01-01 23:49:00,
2013-01-01 15:59:00,51.1,28.7,30.26,NNE,28,0.0,0.0,42,0.00,,,-99.99,Weather View 32 v60,2013-01-01 23:59:00,
2013-01-01 16:09:00,50.4,29.2,30.26,ENE,60,0.0,0.0,44,0.00,,,-99.99,Weather View 32 v60,2013-01-02 00:09:00,
2013-01-01 16:19:00,49.8,30.4,30.26,NE,45,0.0,0.0,47,0.00,,,-99.99,Weather View 32 v60,2013-01-02 00:19:00,
2013-01-01 16:29:00,49.8,30.4,30.26,NE,45,0.0,0.0,47,0.00,,,-99.99,Weather View 32 v60,2013-01-02 00:29:00,
2013-01-01 16:39:00,48.7,30.4,30.23,East,79,0.0,0.0,49,0.00,,,-99.99,Weather View 32 v60,2013-01-02 00:39:00,
2013-01-01 16:49:00,48.4,31.1,30.23,East,82,0.0,0.0,51,0.00,,,-99.99,Weather View 32 v60,2013-01-02 00:49:00,
2013-01-01 16:59:00,47.8,31.5,30.23,ENE,75,0.0,0.0,53,0.00,,,-99.99,Weather View 32 v60,2013-01-02 00:59:00,
2013-01-01 17:09:00,47.3,31.9,30.23,ENE,77,0.0,0.0,55,0.00,,,-99.99,Weather View 32 v60,2013-01-02 01:09:00,
2013-01-01 17:19:00,46.6,31.7,30.23,East,84,0.0,0.0,56,0.00,,,-99.99,Weather View 32 v60,2013-01-02 01:19:00,
2013-01-01 17:29:00,46.6,31.7,30.23,East,84,0.0,0.0,56,0.00,,,-99.99,Weather View 32 v60,2013-01-02 01:29:00,
2013-01-01 17:39:00,45.5,32.4,30.23,East,84,0.0,0.0,60,0.00,,,-99.99,Weather View 32 v60,2013-01-02 01:39:00,
2013-01-01 17:49:00,44.6,31.6,30.23,East,84,0.0,0.0,60,0.00,,,-99.99,Weather View 32 v60,2013-01-02 01:49:00,
2013-01-01 17:59:00,43.7,31.1,30.23,East,84,0.0,0.0,61,0.00,,,-99.99,Weather View 32 v60,2013-01-02 01:59:00,
2013-01-01 18:09:00,43.2,31.4,30.23,East,84,0.0,0.0,63,0.00,,,-99.99,Weather View 32 v60,2013-01-02 02:09:00,
2013-01-01 18:19:00,42.6,31.3,30.23,East,84,0.0,0.0,64,0.00,,,-99.99,Weather View 32 v60,2013-01-02 02:19:00,
2013-01-01 18:30:00,41.7,31.6,30.26,East,84,0.0,0.0,67,0.00,,,-99.99,Weather View 32 v60,2013-01-02 02:30:00,
2013-01-01 18:39:00,41.4,31.9,30.26,East,84,0.0,0.0,69,0.00,,,-99.99,Weather View 32 v60,2013-01-02 02:39:00,
2013-01-01 18:49:00,41.0,31.6,30.26,East,84,0.0,0.0,69,0.00,,,-99.99,Weather View 32 v60,2013-01-02 02:49:00,
2013-01-01 18:59:00,40.3,31.6,30.26,East,84,0.0,0.0,71,0.00,,,-99.99,Weather View 32 v60,2013-01-02 02:59:00,
2013-01-01 19:09:00,39.9,32.0,30.26,East,84,0.0,0.0,73,0.00,,,-99.99,Weather View 32 v60,2013-01-02 03:09:00,
2013-01-01 19:19:00,39.7,32.1,30.26,East,84,0.0,0.0,74,0.00,,,-99.99,Weather View 32 v60,2013-01-02 03:19:00,
2013-01-01 19:29:00,39.2,31.9,30.26,East,84,0.0,0.0,75,0.00,,,-99.99,Weather View 32 v60,2013-01-02 03:29:00,
2013-01-01 19:39:00,39.0,32.1,30.26,East,84,0.0,0.0,76,0.00,,,-99.99,Weather View 32 v60,2013-01-02 03:39:00,
2013-01-01 19:49:00,39.0,32.4,30.26,East,84,0.0,0.0,77,0.00,,,-99.99,Weather View 32 v60,2013-01-02 03:49:00,
2013-01-01 19:59:00,39.0,33.1,30.26,East,84,0.0,0.0,79,0.00,,,-99.99,Weather View 32 v60,2013-01-02 03:59:00,
2013-01-01 20:09:00,38.5,32.5,30.26,East,84,0.0,0.0,79,0.00,,,-99.99,Weather View 32 v60,2013-01-02 04:09:00,
2013-01-01 20:19:00,38.1,32.5,30.26,East,84,0.0,0.0,80,0.00,,,-99.99,Weather View 32 v60,2013-01-02 04:19:00,
2013-01-01 20:29:00,37.8,32.1,30.26,East,84,0.0,0.0,80,0.00,,,-99.99,Weather View 32 v60,2013-01-02 04:29:00,
2013-01-01 20:39:00,37.6,32.0,30.26,East,84,0.0,0.0,80,0.00,,,-99.99,Weather View 32 v60,2013-01-02 04:39:00,
2013-01-01 20:49:00,37.2,31.6,30.26,East,84,0.0,0.0,80,0.00,,,-99.99,Weather View 32 v60,2013-01-02 04:49:00,
2013-01-01 20:59:00,36.9,31.6,30.26,East,84,0.0,0.0,81,0.00,,,-99.99,Weather View 32 v60,2013-01-02 04:59:00,
2013-01-01 21:09:00,36.7,31.7,30.26,East,84,0.0,0.0,82,0.00,,,-99.99,Weather View 32 v60,2013-01-02 05:09:00,
2013-01-01 21:19:00,36.3,31.6,30.26,East,84,0.0,0.0,83,0.00,,,-99.99,Weather View 32 v60,2013-01-02 05:19:00,
2013-01-01 21:29:00,36.1,31.8,30.26,East,84,0.0,0.0,84,0.00,,,-99.99,Weather View 32 v60,2013-01-02 05:29:00,
2013-01-01 21:31:00,36.1,31.8,30.26,East,84,0.0,0.0,84,0.00,,,-99.99,Weather View 32 v60,2013-01-02 05:31:00,
2013-01-01 21:39:00,35.8,31.4,30.26,East,84,0.0,0.0,84,0.00,,,-99.99,Weather View 32 v60,2013-01-02 05:39:00,
2013-01-01 21:49:00,35.6,31.5,30.26,East,84,0.0,0.0,85,0.00,,,-99.99,Weather View 32 v60,2013-01-02 05:49:00,
2013-01-01 21:59:00,35.4,31.6,30.26,East,84,0.0,0.0,86,0.00,,,-99.99,Weather View 32 v60,2013-01-02 05:59:00,
2013-01-01 22:09:00,35.1,31.6,30.26,East,84,0.0,0.0,87,0.00,,,-99.99,Weather View 32 v60,2013-01-02 06:09:00,
2013-01-01 22:19:00,34.9,31.4,30.26,East,84,0.0,0.0,87,0.00,,,-99.99,Weather View 32 v60,2013-01-02 06:19:00,
2013-01-01 22:29:00,34.5,31.0,30.26,East,84,0.0,0.0,87,0.00,,,-99.99,Weather View 32 v60,2013-01-02 06:29:00,
2013-01-01 22:40:00,34.3,31.2,30.26,East,84,0.0,0.0,88,0.00,,,-99.99,Weather View 32 v60,2013-01-02 06:40:00,
2013-01-01 22:49:00,34.0,30.8,30.26,East,84,0.0,0.0,88,0.00,,,-99.99,Weather View 32 v60,2013-01-02 06:49:00,
2013-01-01 22:59:00,33.8,30.6,30.26,East,84,0.0,0.0,88,0.00,,,-99.99,Weather View 32 v60,2013-01-02 06:59:00,
2013-01-01 23:09:00,33.6,30.7,30.26,East,84,0.0,0.0,89,0.00,,,-99.99,Weather View 32 v60,2013-01-02 07:09:00,
2013-01-01 23:19:00,33.4,30.8,30.26,East,84,0.0,0.0,90,0.00,,,-99.99,Weather View 32 v60,2013-01-02 07:19:00,
2013-01-01 23:29:00,33.3,30.9,30.26,East,84,0.0,0.0,91,0.00,,,-99.99,Weather View 32 v60,2013-01-02 07:29:00,
2013-01-01 23:40:00,33.1,30.7,30.26,East,84,0.0,0.0,91,0.00,,,-99.99,Weather View 32 v60,2013-01-02 07:40:00,
2013-01-01 23:49:00,32.9,30.8,30.26,East,84,0.0,0.0,92,0.00,,,-99.99,Weather View 32 v60,2013-01-02 07:49:00,
2013-01-01 23:59:00,32.5,30.5,30.26,East,84,0.0,0.0,92,0.00,,,-99.99,Weather View 32 v60,2013-01-02 07:59:00,